Flag for Taiwan Weather past 2 weeks in Kaohsiung, Taiwan

68 °F

Scattered clouds.

Feels Like: 68 °F
Forecast: 66 / 83 °F
Wind: 6 mph from Northeast

Location: Kaohsiung International Airport

Current Time: Nov 28, 2015 at 8:59:23 AM

Latest Report: Nov 28, 2015 at 8:00 AM

Visibility: 4 mi

Pressure: 30.21 "Hg

Humidity: 69%

Dew point: 57 °F

Location of KaohsiungLocation

Historic Weather in Kaohsiung — Graph


Kaohsiung temperature yesterday

Maximum temperature yesterday: 75 °F (at 2:30 PM)
Minimum temperature yesterday: 61 °F (at 6:00 AM)
Average temperature yesterday: 69 °F

Past Weeks' High & Low Weather Summary

High88 °F (Nov 13, 2:54 PM)100% (Nov 20, 7:30 PM)30.21 "Hg (Nov 20, 7:30 PM)
Low61 °F (Nov 27, 6:00 AM)49% (Nov 27, 3:00 AM)29.89 "Hg (Nov 14, 2:30 PM)
Average79 °F76%30.00 "Hg
* Reported Nov 13 7:00 AM — Nov 28 7:30 AM, Kaohsiung, Weather by CustomWeather, © 2015

Note: Actual official high and low records may vary slightly from our data, if they occured in-between our weather recording intervals... More about our weather records


Kaohsiung weather history for previous 24 hours

Time TempWeatherWind HumidityBarometerVisibility
7:30 AM
Sat, Nov 28
68 °FScattered clouds.3 mph69%30.21 "Hg4 mi
7:00 AM64 °FScattered clouds.5 mph78%30.21 "Hg4 mi
6:30 AM64 °FScattered clouds.3 mph78%30.18 "Hg4 mi
6:00 AM64 °FPassing clouds.3 mph78%30.18 "Hg4 mi
5:00 AM64 °FPassing clouds.6 mph78%30.18 "Hg4 mi
4:00 AM66 °FPassing clouds.6 mph78%30.18 "Hg4 mi
3:00 AM66 °FPassing clouds.5 mph78%30.18 "Hg4 mi
2:00 AM66 °FPassing clouds.3 mph73%30.18 "Hg4 mi
1:00 AM68 °FPassing clouds.3 mph69%30.18 "Hg5 mi
12:00 AM68 °FPassing clouds.2 mph64%30.21 "Hg5 mi
11:30 PM
Fri, Nov 27
68 °FPartly cloudy.3 mph64%30.21 "Hg6 mi
11:00 PM70 °FPassing clouds.6 mph60%30.21 "Hg5 mi
10:30 PM70 °FPassing clouds.7 mph60%30.21 "Hg5 mi
10:00 PM70 °FPassing clouds.8 mph60%30.21 "Hg5 mi
9:30 PM70 °FPassing clouds.8 mph64%30.21 "HgN/A
9:00 PM70 °FPassing clouds.12 mph64%30.21 "HgN/A
8:30 PM72 °FPartly cloudy.3 mph69%30.18 "HgN/A
8:00 PM72 °FPartly cloudy.3 mph69%30.18 "HgN/A
7:30 PM72 °FPartly cloudy.3 mph69%30.18 "HgN/A
7:00 PM70 °FPartly cloudy.3 mph73%30.18 "HgN/A
6:30 PM72 °FPartly cloudy.6 mph69%30.18 "HgN/A
6:00 PM70 °FPartly cloudy.7 mph73%30.15 "HgN/A
5:30 PM72 °FPartly cloudy.6 mph69%30.15 "HgN/A
5:00 PM72 °FBroken clouds.7 mph69%30.12 "HgN/A
4:30 PM72 °FBroken clouds.7 mph69%30.12 "HgN/A
4:00 PM72 °FBroken clouds.6 mph69%30.12 "HgN/A
3:00 PM73 °FBroken clouds.8 mph65%30.12 "HgN/A
2:30 PM75 °FBroken clouds.7 mph61%30.12 "HgN/A
2:00 PM73 °FBroken clouds.8 mph65%30.12 "HgN/A
1:30 PM73 °FBroken clouds.8 mph65%30.12 "HgN/A
1:00 PM73 °FScattered clouds.10 mph65%30.12 "HgN/A
12:00 PM73 °FScattered clouds.8 mph69%30.15 "HgN/A
11:30 AM73 °FScattered clouds.9 mph61%30.15 "HgN/A
11:00 AM72 °FBroken clouds.8 mph65%30.18 "HgN/A
10:30 AM73 °FScattered clouds.8 mph61%30.18 "HgN/A
10:00 AM73 °FScattered clouds.7 mph61%30.18 "HgN/A
9:30 AM72 °FPassing clouds.3 mph61%30.18 "HgN/A
9:00 AM72 °FPassing clouds.2 mph53%30.18 "HgN/A
8:30 AM68 °FScattered clouds.3 mph56%30.18 "HgN/A
Weather by CustomWeather, © 2015

See weather overviewHow to use our weather pages